AVA9211 SKRG-SKCL

Flight info

Callsign AVA9211
Flight time 0h 32m
Altitude 24000
Route ISVON2B ISVON W3 ULQ ULQ4E
Aircraft A320/M-SDE3FGHIRWY/LB1

Departure

Time 2026-05-06 17:06
Airport Jose Maria Córdova International Airport (SKRG)

Arrival

Time 2026-05-06 17:38
Airport Alfonso Bonilla Aragon International Airport (SKCL)
Time Latitude Longitude Altitude Speed Heading
2026-05-06 16:54 6.17071 -75.42697 7016 ft 0 kts 292°
2026-05-06 16:58 6.17068 -75.42690 7017 ft 4 kts 292°
2026-05-06 16:58 6.17060 -75.42669 7017 ft 3 kts 291°
2026-05-06 16:59 6.17057 -75.42645 7018 ft 4 kts 246°
2026-05-06 16:59 6.17073 -75.42626 7017 ft 4 kts 208°
2026-05-06 16:59 6.17096 -75.42616 7018 ft 4 kts 187°
2026-05-06 16:59 6.17118 -75.42615 7018 ft 4 kts 177°
2026-05-06 17:00 6.17131 -75.42616 7016 ft 0 kts 177°
2026-05-06 17:01 6.17130 -75.42616 7016 ft 1 kts 177°
2026-05-06 17:01 6.17097 -75.42612 7017 ft 8 kts 163°
2026-05-06 17:02 6.17026 -75.42582 7021 ft 13 kts 152°
2026-05-06 17:02 6.16979 -75.42507 7017 ft 12 kts 66°
2026-05-06 17:02 6.17041 -75.42487 7017 ft 13 kts
2026-05-06 17:02 6.17154 -75.42487 7017 ft 19 kts
2026-05-06 17:03 6.17300 -75.42487 7018 ft 23 kts 358°
2026-05-06 17:03 6.17478 -75.42488 7020 ft 27 kts 360°
2026-05-06 17:03 6.17664 -75.42490 7021 ft 26 kts 359°
2026-05-06 17:03 6.17846 -75.42493 7025 ft 26 kts 358°
2026-05-06 17:04 6.18008 -75.42485 7029 ft 17 kts 34°
2026-05-06 17:04 6.18025 -75.42394 7029 ft 12 kts 86°
2026-05-06 17:04 6.18018 -75.42322 7029 ft 8 kts 156°
2026-05-06 17:04 6.17997 -75.42322 7028 ft 0 kts 178°
2026-05-06 17:05 6.17994 -75.42321 7028 ft 3 kts 178°
2026-05-06 17:05 6.17869 -75.42322 7025 ft 48 kts 180°
2026-05-06 17:05 6.17298 -75.42318 7019 ft 113 kts 180°
2026-05-06 17:06 6.16320 -75.42311 6987 ft 166 kts 179°
2026-05-06 17:06 6.15158 -75.42317 7686 ft 167 kts 179°
2026-05-06 17:06 6.14002 -75.42325 8366 ft 165 kts 178°
2026-05-06 17:06 6.12851 -75.42324 8855 ft 166 kts 177°
2026-05-06 17:07 6.11697 -75.42321 9351 ft 166 kts 176°
2026-05-06 17:07 6.10520 -75.42317 9854 ft 167 kts 176°
2026-05-06 17:07 6.09351 -75.42313 10230 ft 178 kts 176°
2026-05-06 17:07 6.08041 -75.42305 10402 ft 198 kts 175°
2026-05-06 17:08 6.06626 -75.42460 10691 ft 214 kts 195°
2026-05-06 17:08 6.05303 -75.43293 10870 ft 239 kts 217°
2026-05-06 17:08 6.03968 -75.44428 11046 ft 264 kts 218°
2026-05-06 17:08 6.02511 -75.45679 11289 ft 288 kts 218°
2026-05-06 17:09 6.00929 -75.47042 11508 ft 311 kts 218°
2026-05-06 17:09 5.99222 -75.48508 11689 ft 334 kts 218°
2026-05-06 17:09 5.98025 -75.49534 11795 ft 349 kts 218°
2026-05-06 17:09 5.95486 -75.51709 12349 ft 364 kts 217°
2026-05-06 17:10 5.94143 -75.52721 12704 ft 365 kts 206°
2026-05-06 17:10 5.90957 -75.53878 13403 ft 367 kts 190°
2026-05-06 17:10 5.89299 -75.54228 13759 ft 369 kts 186°
2026-05-06 17:10 5.86760 -75.54604 14369 ft 370 kts 183°
2026-05-06 17:11 5.84189 -75.54905 14951 ft 373 kts 182°
2026-05-06 17:11 5.81594 -75.55207 15505 ft 378 kts 183°
2026-05-06 17:11 5.78969 -75.55550 16053 ft 382 kts 184°
2026-05-06 17:11 5.76318 -75.55942 16593 ft 387 kts 185°
2026-05-06 17:12 5.73646 -75.56373 17131 ft 391 kts 186°
2026-05-06 17:12 5.70944 -75.56829 17631 ft 396 kts 186°
2026-05-06 17:12 5.68218 -75.57296 18168 ft 400 kts 186°
2026-05-06 17:12 5.65459 -75.57765 18615 ft 404 kts 186°
2026-05-06 17:13 5.62677 -75.58232 19021 ft 406 kts 186°
2026-05-06 17:13 5.59883 -75.58696 19501 ft 408 kts 186°
2026-05-06 17:13 5.57065 -75.59160 19975 ft 411 kts 186°
2026-05-06 17:13 5.54231 -75.59622 20443 ft 413 kts 187°
2026-05-06 17:14 5.51416 -75.60082 20890 ft 416 kts 187°
2026-05-06 17:14 5.48551 -75.60551 21330 ft 419 kts 187°
2026-05-06 17:14 5.45669 -75.61024 21806 ft 421 kts 187°
2026-05-06 17:14 5.42764 -75.61500 22235 ft 424 kts 187°
2026-05-06 17:15 5.39862 -75.62097 22647 ft 428 kts 195°
2026-05-06 17:15 5.37027 -75.63055 23053 ft 432 kts 198°
2026-05-06 17:15 5.34184 -75.64049 23477 ft 434 kts 198°
2026-05-06 17:15 5.31324 -75.65051 23860 ft 436 kts 198°
2026-05-06 17:16 5.28450 -75.66054 24074 ft 437 kts 198°
2026-05-06 17:16 5.25571 -75.67057 24147 ft 438 kts 198°
2026-05-06 17:16 5.22688 -75.68062 24167 ft 439 kts 198°
2026-05-06 17:16 5.19805 -75.69070 24178 ft 439 kts 198°
2026-05-06 17:17 5.16922 -75.70076 24186 ft 439 kts 198°
2026-05-06 17:17 5.14028 -75.71085 24196 ft 441 kts 198°
2026-05-06 17:17 5.11127 -75.72096 24197 ft 442 kts 198°
2026-05-06 17:17 5.08219 -75.73111 24195 ft 443 kts 198°
2026-05-06 17:18 5.05306 -75.74130 24192 ft 443 kts 198°
2026-05-06 17:18 5.02399 -75.75146 24180 ft 443 kts 198°
2026-05-06 17:18 4.99493 -75.76163 24170 ft 442 kts 198°
2026-05-06 17:18 4.96586 -75.77179 24153 ft 442 kts 198°
2026-05-06 17:19 4.93719 -75.78180 24132 ft 442 kts 198°
2026-05-06 17:19 4.90814 -75.79194 24127 ft 441 kts 198°
2026-05-06 17:19 4.87916 -75.80206 24133 ft 441 kts 198°
2026-05-06 17:19 4.85020 -75.81220 24135 ft 441 kts 198°
2026-05-06 17:20 4.82123 -75.82233 24136 ft 441 kts 198°
2026-05-06 17:20 4.79235 -75.83249 24132 ft 440 kts 200°
2026-05-06 17:20 4.76462 -75.84559 24127 ft 441 kts 208°
2026-05-06 17:20 4.73782 -75.86053 24123 ft 440 kts 208°
2026-05-06 17:21 4.71129 -75.87538 24121 ft 429 kts 208°
2026-05-06 17:21 4.68553 -75.88983 24120 ft 422 kts 208°
2026-05-06 17:21 4.66001 -75.90414 24115 ft 420 kts 208°
2026-05-06 17:21 4.63454 -75.91842 24101 ft 419 kts 208°
2026-05-06 17:22 4.60912 -75.93266 24091 ft 419 kts 208°
2026-05-06 17:22 4.58371 -75.94684 23769 ft 415 kts 208°
2026-05-06 17:22 4.55851 -75.96090 23231 ft 412 kts 208°
2026-05-06 17:22 4.53354 -75.97484 22676 ft 409 kts 208°
2026-05-06 17:23 4.50879 -75.98866 22151 ft 406 kts 207°
2026-05-06 17:23 4.48422 -76.00238 21649 ft 403 kts 207°
2026-05-06 17:23 4.45985 -76.01599 21159 ft 400 kts 207°
2026-05-06 17:23 4.43563 -76.02955 20696 ft 397 kts 207°
2026-05-06 17:24 4.41159 -76.04308 20189 ft 396 kts 207°
2026-05-06 17:24 4.38766 -76.05657 19697 ft 394 kts 207°
2026-05-06 17:24 4.36383 -76.07000 19245 ft 392 kts 207°
2026-05-06 17:24 4.34045 -76.08315 18806 ft 389 kts 207°
2026-05-06 17:25 4.31688 -76.09639 18365 ft 388 kts 207°
2026-05-06 17:25 4.29344 -76.10956 17888 ft 385 kts 207°
2026-05-06 17:25 4.27015 -76.12263 17477 ft 382 kts 207°
2026-05-06 17:25 4.24710 -76.13557 17043 ft 378 kts 207°
2026-05-06 17:26 4.22427 -76.14847 16625 ft 375 kts 207°
2026-05-06 17:26 4.20170 -76.16127 16235 ft 371 kts 207°
2026-05-06 17:26 4.17928 -76.17399 15826 ft 368 kts 207°
2026-05-06 17:26 4.15706 -76.18657 15409 ft 366 kts 207°
2026-05-06 17:27 4.13499 -76.19908 15022 ft 363 kts 207°
2026-05-06 17:27 4.11314 -76.21148 14626 ft 360 kts 207°
2026-05-06 17:27 4.09124 -76.22352 14208 ft 356 kts 202°
2026-05-06 17:27 4.06848 -76.23297 13798 ft 353 kts 199°
2026-05-06 17:28 4.04574 -76.24212 13351 ft 351 kts 199°
2026-05-06 17:28 4.02317 -76.25124 12908 ft 349 kts 199°
2026-05-06 17:28 4.00079 -76.26029 12483 ft 346 kts 199°
2026-05-06 17:28 3.97852 -76.26930 12059 ft 343 kts 200°
2026-05-06 17:29 3.95644 -76.27822 11640 ft 341 kts 200°
2026-05-06 17:29 3.93457 -76.28709 11232 ft 338 kts 200°
2026-05-06 17:29 3.91283 -76.29591 10834 ft 336 kts 200°
2026-05-06 17:29 3.89127 -76.30466 10412 ft 333 kts 200°
2026-05-06 17:30 3.87011 -76.31320 10026 ft 331 kts 201°
2026-05-06 17:30 3.84896 -76.32173 9787 ft 322 kts 201°
2026-05-06 17:30 3.82856 -76.32996 9653 ft 310 kts 201°
2026-05-06 17:30 3.80829 -76.33568 9538 ft 297 kts 189°
2026-05-06 17:31 3.78825 -76.33912 9416 ft 287 kts 189°
2026-05-06 17:31 3.76903 -76.34245 9287 ft 272 kts 189°
2026-05-06 17:31 3.75106 -76.34558 9167 ft 253 kts 189°
2026-05-06 17:31 3.73427 -76.34851 9084 ft 235 kts 189°
2026-05-06 17:32 3.71847 -76.35125 9124 ft 233 kts 189°
2026-05-06 17:32 3.70279 -76.35396 8929 ft 226 kts 189°
2026-05-06 17:32 3.68830 -76.35980 8445 ft 228 kts 217°
2026-05-06 17:32 3.67906 -76.37282 8017 ft 232 kts 254°
2026-05-06 17:33 3.67881 -76.38887 8002 ft 237 kts 287°
2026-05-06 17:33 3.68730 -76.40292 7999 ft 239 kts 319°
2026-05-06 17:33 3.70194 -76.41039 7998 ft 239 kts 352°
2026-05-06 17:33 3.71852 -76.41032 7996 ft 239 kts
2026-05-06 17:34 3.73379 -76.40436 7925 ft 237 kts 39°
2026-05-06 17:34 3.74324 -76.39127 7621 ft 234 kts 73°
2026-05-06 17:34 3.74382 -76.37519 7286 ft 235 kts 106°
2026-05-06 17:34 3.73555 -76.36134 6956 ft 235 kts 140°
2026-05-06 17:35 3.72121 -76.35366 6670 ft 237 kts 168°
2026-05-06 17:35 3.70481 -76.35354 6367 ft 238 kts 191°
2026-05-06 17:35 3.68871 -76.35640 6029 ft 239 kts 191°
2026-05-06 17:36 3.65578 -76.36217 5331 ft 236 kts 191°
2026-05-06 17:36 3.63990 -76.36494 5002 ft 227 kts 191°
2026-05-06 17:36 3.62457 -76.36760 4679 ft 218 kts 191°
2026-05-06 17:36 3.61027 -76.37008 4385 ft 199 kts 190°
2026-05-06 17:37 3.59706 -76.37237 4082 ft 187 kts 190°
2026-05-06 17:37 3.58464 -76.37456 3811 ft 177 kts 190°
2026-05-06 17:37 3.57282 -76.37661 3570 ft 168 kts 190°
2026-05-06 17:37 3.56149 -76.37850 3312 ft 162 kts 191°
2026-05-06 17:38 3.55061 -76.38039 3166 ft 149 kts 189°
2026-05-06 17:38 3.54202 -76.38187 3168 ft 101 kts 190°
2026-05-06 17:38 3.53682 -76.38277 3164 ft 51 kts 190°
2026-05-06 17:38 3.53525 -76.38329 3161 ft 8 kts 288°
2026-05-06 17:39 3.53536 -76.38401 3161 ft 15 kts 278°
2026-05-06 17:39 3.53607 -76.38499 3163 ft 23 kts 346°
2026-05-06 17:39 3.53775 -76.38575 3163 ft 30 kts 298°
2026-05-06 17:39 3.53770 -76.38707 3163 ft 11 kts 294°
2026-05-06 17:40 3.53792 -76.38726 3163 ft 0 kts 321°